sat.trackr.live / text

‹ back to catalog

STARLINK-30553

NORAD 58056 · 2023-158F

PAYLOAD ACTIVE UNKNOWN

§ Identity

Operator
Country
US
Launch date
2023-10-13
Launch site
AFETR
Launch vehicle
Mass (kg)
RCS (m²)

Purposes: comms

External: N2YO · Heavens-Above · Gunter

§ Orbital elements

Epoch: 2026-09-20T08:37:02.993952Z

Period
94.27 min
Inclination
43.0054°
Eccentricity
0.0001614
Mean motion
15.27577031 rev/d
Perigee alt
482.0 km
Apogee alt
484.2 km
Semi-major
6,861.2 km
B*
5.3236e-5
RAAN
7.5297°
Arg perigee
279.7458°
Mean anomaly
80.3211°
Rev number
16,334

§ Raw data

STARLINK-305531 58056U 23158F   26263.35906243  .00001203  00000+0  53236-4 0  99922 58056  43.0054   7.5297 0001614 279.7458  80.3211 15.27577031163346

JSON: /api/v1/satellites/58056 · /tle

For live sub-satellite position, see the globe view (requires WebGL).

§ Visibility from observer

Set your observer location to see the next 7 days of passes ≥ 10°. The values pass through the URL so the page stays shareable.

No JS? Fill the form by hand. The geolocation button needs JavaScript.